IU1VDW-3 Weather Reports


time (UTC)temp
C
wind
direction
speed
KPH
gust
KPH
rain 1hr
cm
rain 24hr
cm
rain mn
cm
humidity
%
barometer
mb
20260906092917 29 0 0.0 0.0 0.00 0.00 0.00 51 1022.9
20260906084917 28 0 0.0 0.0 0.00 0.00 0.00 54 1023.1
20260906080917 26 0 0.0 0.0 0.00 0.00 0.00 58 1023.1
20260906072917 25 0 0.0 0.0 0.00 0.00 0.00 62 1023.2
20260906064917 23 0 0.0 0.0 0.00 0.00 0.00 64 1023.2
20260906060917 23 0 0.0 0.0 0.00 0.00 0.00 67 1022.8
20260906052917 22 0 0.0 0.0 0.00 0.00 0.00 69 1022.3
20260906044917 22 0 0.0 0.0 0.00 0.00 0.00 69 1021.9
20260906040917 22 0 0.0 0.0 0.00 0.00 0.00 69 1021.4
20260906032917 22 0 0.0 0.0 0.00 0.00 0.00 69 1020.9
20260906024917 23 0 0.0 0.0 0.00 0.00 0.00 65 1020.6
20260906020917 23 0 0.0 0.0 0.00 0.00 0.00 63 1020.4
20260906012917 24 0 0.0 0.0 0.00 0.00 0.00 61 1020.3
20260906004918 25 0 0.0 0.0 0.00 0.00 0.00 57 1020.1
20260906000918 25 0 0.0 0.0 0.00 0.00 0.00 57 1020.0
20260905232918 25 0 0.0 0.0 0.00 0.00 0.00 57 1019.8
20260905224918 25 0 0.0 0.0 0.00 0.00 0.00 55 1019.5
20260905220918 27 0 0.0 0.0 0.00 0.00 0.00 49 1019.2
20260905212918 28 0 0.0 0.0 0.00 0.00 0.00 47 1018.7
20260905204918 29 0 0.0 0.0 0.00 0.00 0.00 45 1018.3
20260905200918 31 0 0.0 0.0 0.00 0.00 0.00 39 1017.6
20260905192918 32 0 0.0 0.0 0.00 0.00 0.00 39 1016.8
20260905184918 33 0 0.0 0.0 0.00 0.00 0.00 38 1016.4
20260905180918 34 0 0.0 0.0 0.00 0.00 0.00 35 1015.7
20260905172918 36 0 0.0 0.0 0.00 0.00 0.00 31 1015.2